This is the latest recevied weather packets stored in our database for station/object KK4KTV-13. If no packets are shown the sender has not sent any weather packets the latest 10 day(s).
| Time | Temp. | Humidity | Pressure | Rain* | Wind** | Luminosity | Snow |
|---|---|---|---|---|---|---|---|
| 1777756331 | 12.78° C | 52% | 1015.5 hPa | 0 mm | - | 134 W/m² | - |
| 1777756028 | 12.78° C | 52% | 1015.6 hPa | 0 mm | - | 150 W/m² | - |
| 1777755725 | 12.78° C | 51% | 1015.6 hPa | 0 mm | - | 178 W/m² | - |
| 1777755422 | 12.78° C | 54% | 1015.6 hPa | 0 mm | - | 201 W/m² | - |
| 1777755113 | 13.33° C | 52% | 1015.7 hPa | 0 mm | - | 241 W/m² | - |
| 1777754810 | 13.33° C | 52% | 1015.5 hPa | 0 mm | - | 320 W/m² | - |
| 1777754508 | 12.78° C | 52% | 1015.7 hPa | 0 mm | - | 264 W/m² | - |
| 1777754204 | 12.78° C | 54% | 1015.8 hPa | 0 mm | - | 174 W/m² | - |
| 1777753903 | 12.78° C | 54% | 1015.8 hPa | 0 mm | - | 176 W/m² | - |
| 1777753597 | 12.78° C | 54% | 1015.7 hPa | 0 mm | - | 180 W/m² | - |
| 1777753296 | 12.78° C | 54% | 1015.7 hPa | 0 mm | - | 138 W/m² | - |
| 1777752992 | 12.78° C | 56% | 1015.9 hPa | 0 mm | - | 123 W/m² | - |
| 1777752688 | 12.78° C | 55% | 1015.7 hPa | 0 mm | - | 148 W/m² | - |
| 1777752384 | 12.78° C | 55% | 1015.9 hPa | 0 mm | - | 147 W/m² | - |
| 1777752082 | 12.78° C | 55% | 1015.6 hPa | 0 mm | - | 136 W/m² | - |
| 1777751780 | 13.33° C | 54% | 1015.8 hPa | 0 mm | - | 132 W/m² | - |
| 1777751475 | 13.33° C | 53% | 1015.8 hPa | 0 mm | - | 108 W/m² | - |
| 1777751173 | 13.33° C | 52% | 1015.7 hPa | 0 mm | - | 121 W/m² | - |
| 1777750869 | 13.33° C | 52% | 1015.9 hPa | 0 mm | - | 171 W/m² | - |
| 1777750566 | 13.33° C | 53% | 1015.8 hPa | 0 mm | - | 218 W/m² | - |
| 1777750263 | 12.78° C | 54% | 1015.9 hPa | 0 mm | - | 173 W/m² | - |
| 1777749958 | 12.78° C | 55% | 1015.8 hPa | 0 mm | - | 157 W/m² | - |
| 1777749656 | 12.78° C | 54% | 1015.9 hPa | 0 mm | - | 135 W/m² | - |
| 1777749352 | 12.78° C | 56% | 1015.8 hPa | 0 mm | - | 104 W/m² | - |
| 1777749050 | 12.78° C | 55% | 1015.9 hPa | 0 mm | - | 82 W/m² | - |
* Rain latest hour (hover to see other rain measurements)
** Current wind speed in m/s (hover to see current wind gust speed)